Lid_Strength_Index
4 3 2 2 2 2 1 -0 -1 -1 -1 -1 -1 -0 -0 -1 -1 0 3 0 -0 -2 -1 1 1 2 2 4 4 4 12 13 10 10 8 6 6 5 4 5 5 4 4 4 2
4 4 3 3 3 3 2 0 -1 -1 -1 0 0 0 -0 -1 1 2 -1 -1 -2 -2 1 3 4 3 5 5 5 8 12 11 7 6 7 6 6 6 6 6 6 5 3 3 3
3 4 4 3 3 3 2 1 -1 -0 -0 0 1 0 -0 -1 3 4 -1 -1 -2 -2 1 2 2 4 6 5 6 8 11 7 6 5 6 6 7 5 6 7 6 6 5 4 4
3 3 4 5 4 3 2 1 -0 -0 0 1 1 0 -1 0 10 1 -2 -2 -2 -1 1 3 4 6 7 8 6 9 7 7 6 6 6 7 5 7 6 6 4 3 3 4 4
3 3 3 4 4 3 1 0 -0 0 1 1 1 0 0 4 4 0 -1 -2 -1 0 3 4 6 6 8 7 6 8 7 6 6 6 6 5 6 7 6 4 3 3 3 4 4
3 4 4 4 4 3 2 0 1 0 0 1 1 -0 2 7 -0 -0 -0 -0 0 1 3 3 5 4 6 6 7 6 6 6 6 6 6 7 7 6 6 4 4 4 4 4 4
3 4 4 4 5 4 2 0 0 1 0 1 0 1 3 4 -1 -1 -0 0 1 2 4 3 3 6 5 7 5 6 9 8 7 7 7 6 8 8 5 4 5 4 4 4 3
4 4 4 4 4 4 2 1 -0 1 1 1 0 1 5 -0 -1 -0 -0 1 1 2 3 3 3 5 5 5 7 9 8 13 8 7 7 7 12 7 5 5 5 5 4 4 4
4 4 4 4 5 4 2 0 0 1 1 1 1 2 5 -1 2 0 -0 2 2 3 3 2 4 6 6 9 11 10 13 12 11 7 8 9 10 7 5 5 6 5 4 4 4
4 4 4 5 5 4 3 1 1 1 1 1 2 5 3 5 2 1 0 1 4 5 6 6 7 10 9 10 15 13 11 10 11 9 9 10 10 7 6 6 6 5 5 4 4
4 4 4 5 5 4 3 2 5 6 4 6 6 5 4 2 1 2 1 3 4 8 10 8 11 14 10 8 8 8 10 10 8 8 9 10 10 8 6 6 6 6 5 4 4
5 5 5 5 4 4 3 5 5 4 8 5 4 4 2 2 5 4 1 6 7 11 9 11 13 10 8 7 9 9 11 12 10 8 9 9 9 7 6 6 6 5 5 5 4
5 5 5 5 5 5 5 5 3 3 7 7 4 5 4 3 6 5 4 6 8 11 11 13 11 8 9 9 10 10 11 11 11 9 8 9 10 9 7 6 5 5 4 4 4
5 5 5 5 7 6 7 4 2 3 11 10 7 5 4 4 8 3 4 6 8 11 10 10 9 9 10 10 8 12 8 9 10 12 15 9 14 10 8 8 7 6 5 5 4
5 5 5 5 6 8 6 3 2 4 18 9 7 2 4 7 6 7 3 5 10 10 10 13 11 11 11 9 8 10 8 9 10 11 11 12 14 10 8 9 8 6 6 5 4
6 5 5 6 5 6 4 3 3 12 19 12 8 8 8 7 7 6 6 5 6 9 9 10 7 9 9 8 8 7 9 9 9 11 16 12 12 11 10 9 7 6 6 5 4
5 6 6 5 8 5 4 6 13 16 10 13 11 8 9 9 9 9 10 11 12 15 15 12 11 9 8 10 8 8 11 17 18 18 17 11 12 11 8 7 6 6 5 5 4
5 5 6 5 5 5 6 11 17 12 13 9 10 10 11 9 9 9 10 11 9 11 14 16 17 11 8 10 11 10 10 15 19 18 15 11 15 11 7 6 6 5 5 5 4
6 5 6 6 5 5 10 14 14 12 9 11 10 13 12 10 10 10 10 11 10 9 13 15 16 9 9 8 9 11 13 9 14 13 15 13 10 8 7 7 6 6 6 6 6
6 7 7 6 5 7 12 14 12 8 8 9 13 11 12 11 11 11 11 9 10 8 7 11 16 11 9 8 8 10 8 13 14 19 18 14 13 11 9 8 7 7 7 7 6
7 10 8 6 6 10 14 12 10 8 7 10 11 12 10 11 10 11 11 9 8 9 8 9 11 13 10 13 12 11 12 11 11 13 16 16 13 8 8 7 7 6 5 6 6
8 13 8 6 12 12 11 11 10 8 6 8 8 9 10 10 11 11 11 10 7 8 10 8 11 16 13 9 8 9 10 10 15 15 13 14 13 7 6 6 6 6 5 5 5
10 12 9 8 13 11 10 10 9 9 8 8 9 8 7 10 12 10 10 7 7 8 10 8 12 17 16 11 9 11 10 10 10 12 15 15 13 7 6 6 6 6 5 5 4
10 14 11 11 9 11 11 11 11 8 8 7 8 7 8 10 8 10 10 8 7 7 7 7 10 13 16 14 11 13 11 10 12 16 14 13 11 9 7 7 6 5 5 4 4
11 11 11 14 11 10 10 11 11 11 8 7 8 8 9 11 10 11 9 9 7 7 7 8 13 12 11 11 11 12 11 11 14 12 15 12 11 8 7 6 6 5 5 5 5
13 13 13 12 11 10 12 11 11 11 9 9 9 8 8 10 9 11 9 9 9 7 8 7 13 12 13 10 11 13 11 10 11 11 11 11 11 7 6 5 6 6 5 5 5
12 12 12 14 12 11 11 11 11 10 9 7 8 8 9 9 7 7 6 6 7 8 9 9 11 13 15 12 12 14 11 11 10 9 10 13 9 7 7 6 6 6 5 5 5